RYR51AD LEPA-EDDK

Flight info

Callsign RYR51AD
Flight time 2h 13m
Altitude 36000
Route GALAT4A GALAT N861 OLOXO DCT OKABI DCT TOU DCT ADABI DCT BOKNO DCT DIBES DCT VIQAQ DCT TSU UN858 OQQAL DCT RANUX/N0450F370 DCT VALEK DCT LUTAX UM163 DIK/N0436F290 N853 ARCKY T853 IBESA T860 ERUKI T856 DEPOK DEPOK2C
Aircraft A320/M-SDE3FGHIRWY/LB1

Departure

Time 2026-04-21 05:32
Airport Palma de Mallorca Airport (LEPA)

Arrival

Time 2026-04-21 07:45
Airport Cologne Bonn Airport (EDDK)
Time Latitude Longitude Altitude Speed Heading
2026-04-21 05:16 39.54848 2.73433 29 ft 0 kts 332°
2026-04-21 05:25 39.54845 2.73435 30 ft 3 kts 332°
2026-04-21 05:26 39.54822 2.73452 30 ft 4 kts 332°
2026-04-21 05:26 39.54803 2.73465 30 ft 4 kts 327°
2026-04-21 05:26 39.54785 2.73488 30 ft 4 kts 290°
2026-04-21 05:26 39.54777 2.73521 30 ft 4 kts 303°
2026-04-21 05:27 39.54763 2.73537 30 ft 4 kts 328°
2026-04-21 05:27 39.54757 2.73542 30 ft 0 kts 328°
2026-04-21 05:28 39.54768 2.73527 30 ft 8 kts 306°
2026-04-21 05:29 39.54696 2.73494 30 ft 24 kts 143°
2026-04-21 05:29 39.54622 2.73603 30 ft 13 kts 111°
2026-04-21 05:29 39.54544 2.73616 30 ft 16 kts 235°
2026-04-21 05:29 39.54494 2.73495 30 ft 20 kts 243°
2026-04-21 05:30 39.54413 2.73331 30 ft 24 kts 239°
2026-04-21 05:30 39.54330 2.73172 30 ft 13 kts 199°
2026-04-21 05:30 39.54285 2.73248 30 ft 11 kts 101°
2026-04-21 05:30 39.54280 2.73366 30 ft 16 kts 92°
2026-04-21 05:31 39.54282 2.73497 30 ft 7 kts 52°
2026-04-21 05:31 39.54293 2.73518 30 ft 0 kts 59°
2026-04-21 05:31 39.54293 2.73519 30 ft 1 kts 59°
2026-04-21 05:31 39.54376 2.73699 30 ft 58 kts 59°
2026-04-21 05:32 39.54712 2.74402 30 ft 123 kts 58°
2026-04-21 05:32 39.55245 2.75531 134 ft 160 kts 58°
2026-04-21 05:32 39.55818 2.76762 750 ft 160 kts 58°
2026-04-21 05:32 39.56399 2.78003 1387 ft 162 kts 59°
2026-04-21 05:33 39.56997 2.79270 1912 ft 173 kts 59°
2026-04-21 05:33 39.57649 2.80689 2171 ft 195 kts 60°
2026-04-21 05:33 39.58368 2.82295 2454 ft 215 kts 60°
2026-04-21 05:33 39.59129 2.84001 2998 ft 221 kts 60°
2026-04-21 05:34 39.59909 2.85735 3650 ft 224 kts 60°
2026-04-21 05:34 39.60700 2.87485 4339 ft 226 kts 59°
2026-04-21 05:34 39.61501 2.89253 5007 ft 229 kts 59°
2026-04-21 05:34 39.62525 2.90817 5639 ft 231 kts 31°
2026-04-21 05:35 39.64050 2.91361 6261 ft 232 kts 354°
2026-04-21 05:35 39.65525 2.90637 6853 ft 234 kts 319°
2026-04-21 05:35 39.66451 2.88913 7452 ft 237 kts 294°
2026-04-21 05:35 39.67056 2.86922 8112 ft 238 kts 289°
2026-04-21 05:36 39.67563 2.84868 8771 ft 240 kts 286°
2026-04-21 05:36 39.67973 2.82755 9428 ft 242 kts 282°
2026-04-21 05:36 39.68278 2.80594 10077 ft 244 kts 278°
2026-04-21 05:36 39.68468 2.78394 10688 ft 246 kts 274°
2026-04-21 05:37 39.68545 2.76175 11313 ft 247 kts 270°
2026-04-21 05:37 39.68504 2.73932 11881 ft 252 kts 266°
2026-04-21 05:37 39.68360 2.71584 12175 ft 268 kts 268°
2026-04-21 05:37 39.68442 2.69147 12734 ft 272 kts 278°
2026-04-21 05:38 39.68858 2.66746 13364 ft 274 kts 287°
2026-04-21 05:38 39.69593 2.64455 13980 ft 276 kts 297°
2026-04-21 05:38 39.70629 2.62342 14537 ft 279 kts 307°
2026-04-21 05:38 39.71943 2.60471 15081 ft 282 kts 316°
2026-04-21 05:39 39.73504 2.58894 15616 ft 286 kts 323°
2026-04-21 05:39 39.75143 2.57419 16141 ft 288 kts 323°
2026-04-21 05:39 39.76774 2.55952 16657 ft 290 kts 323°
2026-04-21 05:39 39.78438 2.54453 17179 ft 292 kts 323°
2026-04-21 05:40 39.80113 2.52941 17703 ft 294 kts 323°
2026-04-21 05:40 39.81801 2.51419 18217 ft 297 kts 323°
2026-04-21 05:40 39.83502 2.49884 18664 ft 299 kts 323°
2026-04-21 05:40 39.85213 2.48333 19112 ft 301 kts 323°
2026-04-21 05:41 39.86933 2.46771 19555 ft 302 kts 322°
2026-04-21 05:41 39.88658 2.45202 19997 ft 304 kts 322°
2026-04-21 05:41 39.90397 2.43623 20431 ft 306 kts 322°
2026-04-21 05:41 39.92147 2.42036 20865 ft 307 kts 322°
2026-04-21 05:42 39.93906 2.40439 21293 ft 309 kts 322°
2026-04-21 05:42 39.95675 2.38834 21723 ft 311 kts 322°
2026-04-21 05:42 39.97455 2.37220 22143 ft 313 kts 322°
2026-04-21 05:42 39.99243 2.35596 22564 ft 314 kts 322°
2026-04-21 05:43 40.01043 2.33959 22975 ft 316 kts 322°
2026-04-21 05:43 40.02861 2.32301 23230 ft 325 kts 322°
2026-04-21 05:43 40.04799 2.30663 23373 ft 341 kts 331°
2026-04-21 05:43 40.07006 2.29378 23511 ft 354 kts 333°
2026-04-21 05:44 40.09307 2.28075 23642 ft 367 kts 333°
2026-04-21 05:44 40.11688 2.26735 23752 ft 379 kts 333°
2026-04-21 05:44 40.14148 2.25350 23870 ft 391 kts 333°
2026-04-21 05:44 40.16679 2.23921 23991 ft 402 kts 333°
2026-04-21 05:45 40.19270 2.22453 24184 ft 409 kts 333°
2026-04-21 05:45 40.21891 2.20961 24503 ft 412 kts 333°
2026-04-21 05:45 40.24529 2.19462 24855 ft 414 kts 333°
2026-04-21 05:45 40.27148 2.17979 25201 ft 416 kts 333°
2026-04-21 05:46 40.29813 2.16467 25548 ft 418 kts 333°
2026-04-21 05:46 40.32489 2.14945 25898 ft 420 kts 333°
2026-04-21 05:46 40.35173 2.13411 26236 ft 422 kts 333°
2026-04-21 05:46 40.37872 2.11873 26570 ft 424 kts 333°
2026-04-21 05:47 40.40579 2.10323 26897 ft 426 kts 333°
2026-04-21 05:47 40.43298 2.08765 27217 ft 428 kts 333°
2026-04-21 05:47 40.46032 2.07204 27525 ft 429 kts 333°
2026-04-21 05:47 40.48777 2.05637 27836 ft 431 kts 333°
2026-04-21 05:48 40.51533 2.04061 28147 ft 433 kts 333°
2026-04-21 05:48 40.54300 2.02475 28435 ft 435 kts 333°
2026-04-21 05:48 40.57076 2.00881 28721 ft 436 kts 333°
2026-04-21 05:48 40.59863 1.99279 28997 ft 438 kts 333°
2026-04-21 05:49 40.62667 1.97665 29260 ft 440 kts 333°
2026-04-21 05:49 40.65473 1.96046 29519 ft 441 kts 333°
2026-04-21 05:49 40.68291 1.94420 29771 ft 443 kts 333°
2026-04-21 05:49 40.71119 1.92787 30002 ft 445 kts 333°
2026-04-21 05:50 40.73960 1.91151 30206 ft 446 kts 333°
2026-04-21 05:50 40.76807 1.89506 30402 ft 447 kts 333°
2026-04-21 05:50 40.79651 1.87861 30689 ft 446 kts 333°
2026-04-21 05:50 40.82489 1.86218 30969 ft 445 kts 333°
2026-04-21 05:51 40.85319 1.84575 31260 ft 444 kts 333°
2026-04-21 05:51 40.88138 1.82936 31540 ft 443 kts 333°
2026-04-21 05:51 40.90952 1.81298 31824 ft 441 kts 333°
2026-04-21 05:51 40.93760 1.79663 32109 ft 440 kts 333°
2026-04-21 05:52 40.96559 1.78034 32390 ft 440 kts 333°
2026-04-21 05:52 40.99360 1.76403 32671 ft 439 kts 333°
2026-04-21 05:52 41.02149 1.74782 32947 ft 438 kts 333°
2026-04-21 05:52 41.04974 1.73410 33222 ft 440 kts 341°
2026-04-21 05:53 41.07979 1.72587 33493 ft 443 kts 349°
2026-04-21 05:53 41.11039 1.72117 33759 ft 442 kts 350°
2026-04-21 05:53 41.14095 1.71651 34018 ft 442 kts 350°
2026-04-21 05:53 41.17146 1.71183 34250 ft 441 kts 350°
2026-04-21 05:54 41.20192 1.70719 34485 ft 440 kts 349°
2026-04-21 05:54 41.23236 1.70254 34708 ft 440 kts 349°
2026-04-21 05:54 41.26273 1.69791 34925 ft 439 kts 349°
2026-04-21 05:54 41.29308 1.69326 35131 ft 439 kts 349°
2026-04-21 05:55 41.32340 1.68853 35337 ft 438 kts 349°
2026-04-21 05:55 41.35366 1.68376 35539 ft 438 kts 349°
2026-04-21 05:55 41.38391 1.67907 35729 ft 438 kts 349°
2026-04-21 05:55 41.41418 1.67441 35912 ft 438 kts 349°
2026-04-21 05:56 41.47483 1.66503 35962 ft 442 kts 349°
2026-04-21 05:56 41.53633 1.65532 35960 ft 447 kts 349°
2026-04-21 05:57 41.59820 1.64561 35969 ft 448 kts 349°
2026-04-21 05:57 41.65970 1.63600 35966 ft 448 kts 349°
2026-04-21 05:58 41.72161 1.62628 35983 ft 448 kts 349°
2026-04-21 05:58 41.78353 1.61647 35979 ft 448 kts 349°
2026-04-21 05:59 41.84544 1.60663 35980 ft 448 kts 349°
2026-04-21 06:00 41.93743 1.59216 35982 ft 447 kts 349°
2026-04-21 06:00 41.99919 1.58246 35976 ft 446 kts 349°
2026-04-21 06:01 42.06088 1.57259 35982 ft 446 kts 349°
2026-04-21 06:01 42.12259 1.56279 35992 ft 446 kts 349°
2026-04-21 06:02 42.18384 1.55309 35998 ft 446 kts 349°
2026-04-21 06:02 42.24544 1.54322 36011 ft 446 kts 348°
2026-04-21 06:03 42.30700 1.53334 36014 ft 445 kts 349°
2026-04-21 06:03 42.36854 1.52355 36017 ft 445 kts 348°
2026-04-21 06:04 42.42999 1.51367 36020 ft 445 kts 348°
2026-04-21 06:04 42.49143 1.50371 36022 ft 445 kts 348°
2026-04-21 06:05 42.55281 1.49386 36019 ft 444 kts 348°
2026-04-21 06:05 42.61414 1.48396 36020 ft 444 kts 348°
2026-04-21 06:06 42.67545 1.47411 36011 ft 443 kts 348°
2026-04-21 06:06 42.73671 1.46429 36004 ft 444 kts 348°
2026-04-21 06:07 42.79750 1.45445 35991 ft 442 kts 348°
2026-04-21 06:07 42.85865 1.44457 35986 ft 442 kts 348°
2026-04-21 06:08 42.91977 1.43468 35981 ft 442 kts 348°
2026-04-21 06:08 42.98086 1.42478 35975 ft 442 kts 348°
2026-04-21 06:09 43.04194 1.41493 35969 ft 442 kts 348°
2026-04-21 06:09 43.10298 1.40496 35959 ft 442 kts 348°
2026-04-21 06:10 43.16402 1.39504 35955 ft 441 kts 348°
2026-04-21 06:10 43.22502 1.38503 35950 ft 441 kts 348°
2026-04-21 06:11 43.28594 1.37496 35946 ft 441 kts 348°
2026-04-21 06:11 43.33665 1.36663 35953 ft 441 kts 348°
2026-04-21 06:12 43.40751 1.35507 35954 ft 441 kts 348°
2026-04-21 06:12 43.45850 1.34674 35953 ft 441 kts 348°
2026-04-21 06:13 43.51940 1.33663 35960 ft 441 kts 348°
2026-04-21 06:13 43.58025 1.32650 35959 ft 441 kts 348°
2026-04-21 06:14 43.64117 1.31638 35960 ft 441 kts 348°
2026-04-21 06:14 43.70150 1.30575 35960 ft 439 kts 346°
2026-04-21 06:15 43.76156 1.29093 35961 ft 438 kts 344°
2026-04-21 06:15 43.82122 1.27419 35956 ft 437 kts 344°
2026-04-21 06:16 43.88094 1.25797 35959 ft 438 kts 344°
2026-04-21 06:16 43.94086 1.24245 35964 ft 438 kts 345°
2026-04-21 06:17 44.00077 1.22710 35961 ft 438 kts 345°
2026-04-21 06:17 44.06071 1.21164 35956 ft 438 kts 345°
2026-04-21 06:18 44.12058 1.19605 35958 ft 438 kts 345°
2026-04-21 06:18 44.18045 1.18034 35964 ft 438 kts 344°
2026-04-21 06:19 44.24032 1.16464 35966 ft 438 kts 345°
2026-04-21 06:19 44.30020 1.14897 35969 ft 438 kts 345°
2026-04-21 06:20 44.35969 1.13341 35965 ft 438 kts 345°
2026-04-21 06:20 44.41946 1.11770 35964 ft 437 kts 345°
2026-04-21 06:21 44.47915 1.10188 35966 ft 436 kts 344°
2026-04-21 06:21 44.53878 1.08601 35967 ft 436 kts 345°
2026-04-21 06:22 44.59842 1.07019 35965 ft 436 kts 345°
2026-04-21 06:22 44.65800 1.05440 35967 ft 436 kts 345°
2026-04-21 06:23 44.71756 1.03866 35967 ft 435 kts 345°
2026-04-21 06:23 44.77705 1.02278 35963 ft 435 kts 345°
2026-04-21 06:24 44.83659 1.00688 35968 ft 435 kts 345°
2026-04-21 06:24 44.89574 0.99109 35968 ft 435 kts 345°
2026-04-21 06:25 44.95526 0.97510 35974 ft 436 kts 345°
2026-04-21 06:25 45.01483 0.95907 35981 ft 436 kts 345°
2026-04-21 06:26 45.07437 0.94296 35989 ft 436 kts 345°
2026-04-21 06:26 45.13395 0.92691 35990 ft 436 kts 345°
2026-04-21 06:27 45.19350 0.91080 35991 ft 436 kts 345°
2026-04-21 06:27 45.25307 0.89465 35986 ft 436 kts 345°
2026-04-21 06:28 45.31270 0.87854 35982 ft 436 kts 345°
2026-04-21 06:28 45.37229 0.86236 35977 ft 436 kts 345°
2026-04-21 06:29 45.43150 0.84611 35980 ft 436 kts 345°
2026-04-21 06:29 45.49113 0.82967 35984 ft 437 kts 345°
2026-04-21 06:30 45.55079 0.81329 35987 ft 437 kts 345°
2026-04-21 06:30 45.61046 0.79696 35992 ft 436 kts 345°
2026-04-21 06:31 45.67002 0.78060 35995 ft 436 kts 345°
2026-04-21 06:31 45.72961 0.76422 35998 ft 436 kts 345°
2026-04-21 06:32 45.78925 0.74774 36004 ft 436 kts 345°
2026-04-21 06:32 45.84885 0.73115 36009 ft 436 kts 345°
2026-04-21 06:33 45.90841 0.71445 36016 ft 436 kts 345°
2026-04-21 06:33 45.96801 0.69786 36021 ft 436 kts 345°
2026-04-21 06:34 46.02760 0.68131 36030 ft 436 kts 345°
2026-04-21 06:34 46.08675 0.66470 36029 ft 436 kts 345°
2026-04-21 06:35 46.14640 0.64802 36041 ft 436 kts 345°
2026-04-21 06:35 46.20597 0.63126 36052 ft 436 kts 345°
2026-04-21 06:36 46.26549 0.61457 36058 ft 436 kts 345°
2026-04-21 06:36 46.32508 0.59786 36061 ft 436 kts 345°
2026-04-21 06:37 46.38467 0.58094 36073 ft 436 kts 345°
2026-04-21 06:37 46.44423 0.56407 36086 ft 436 kts 345°
2026-04-21 06:38 46.50379 0.54712 36095 ft 436 kts 345°
2026-04-21 06:38 46.56426 0.53882 36078 ft 445 kts
2026-04-21 06:38 46.59439 0.55051 36072 ft 455 kts 20°
2026-04-21 06:39 46.62143 0.57505 36070 ft 465 kts 38°
2026-04-21 06:39 46.66749 0.64182 36064 ft 468 kts 41°
2026-04-21 06:40 46.71287 0.70909 36066 ft 469 kts 41°
2026-04-21 06:40 46.75878 0.77685 36075 ft 470 kts 40°
2026-04-21 06:41 46.80478 0.84457 36082 ft 470 kts 41°
2026-04-21 06:41 46.85070 0.91263 36089 ft 470 kts 41°
2026-04-21 06:42 46.89664 0.98051 36093 ft 469 kts 40°
2026-04-21 06:42 46.94340 1.04695 36101 ft 468 kts 39°
2026-04-21 06:43 46.99041 1.11293 36104 ft 468 kts 39°
2026-04-21 06:43 47.03716 1.17929 36109 ft 468 kts 39°
2026-04-21 06:44 47.08371 1.24602 36113 ft 468 kts 39°
2026-04-21 06:44 47.13018 1.31288 36122 ft 468 kts 39°
2026-04-21 06:45 47.17666 1.37979 36139 ft 467 kts 39°
2026-04-21 06:45 47.22270 1.44619 36147 ft 467 kts 39°
2026-04-21 06:46 47.26907 1.51325 36156 ft 467 kts 39°
2026-04-21 06:46 47.31539 1.58037 36159 ft 467 kts 39°
2026-04-21 06:47 47.36166 1.64759 36158 ft 467 kts 39°
2026-04-21 06:47 47.40793 1.71491 36160 ft 467 kts 39°
2026-04-21 06:48 47.45411 1.78243 36152 ft 467 kts 39°
2026-04-21 06:48 47.50029 1.85017 36155 ft 468 kts 39°
2026-04-21 06:49 47.54649 1.91793 36147 ft 468 kts 39°
2026-04-21 06:49 47.59264 1.98593 36150 ft 468 kts 39°
2026-04-21 06:50 47.63876 2.05415 36166 ft 468 kts 39°
2026-04-21 06:50 47.68461 2.12205 36168 ft 469 kts 39°
2026-04-21 06:51 47.73071 2.19058 36177 ft 469 kts 39°
2026-04-21 06:51 47.77687 2.25918 36183 ft 469 kts 39°
2026-04-21 06:52 47.82300 2.32789 36186 ft 470 kts 39°
2026-04-21 06:52 47.86911 2.39697 36187 ft 470 kts 39°
2026-04-21 06:53 47.91519 2.46617 36186 ft 470 kts 39°
2026-04-21 06:53 47.96129 2.53546 36186 ft 471 kts 39°
2026-04-21 06:54 48.00733 2.60498 36189 ft 471 kts 39°
2026-04-21 06:54 48.05308 2.67402 36191 ft 471 kts 39°
2026-04-21 06:55 48.09911 2.74372 36195 ft 471 kts 39°
2026-04-21 06:55 48.14504 2.81373 36196 ft 471 kts 39°
2026-04-21 06:56 48.19059 2.88327 36198 ft 471 kts 39°
2026-04-21 06:56 48.23654 2.95344 36205 ft 471 kts 39°
2026-04-21 06:57 48.28245 3.02368 36203 ft 471 kts 39°
2026-04-21 06:57 48.32831 3.09401 36210 ft 472 kts 39°
2026-04-21 06:58 48.37410 3.16471 36211 ft 472 kts 39°
2026-04-21 06:58 48.41981 3.23550 36215 ft 472 kts 39°
2026-04-21 06:59 48.46553 3.30651 36206 ft 472 kts 39°
2026-04-21 06:59 48.51115 3.37665 36217 ft 472 kts 39°
2026-04-21 07:00 48.55712 3.44720 36215 ft 472 kts 39°
2026-04-21 07:00 48.60302 3.51813 36219 ft 472 kts 39°
2026-04-21 07:01 48.64877 3.58923 36219 ft 472 kts 39°
2026-04-21 07:01 48.71740 3.69598 36222 ft 472 kts 39°
2026-04-21 07:02 48.76316 3.76724 36224 ft 472 kts 39°
2026-04-21 07:02 48.80884 3.83874 36221 ft 472 kts 39°
2026-04-21 07:03 48.85437 3.91038 36225 ft 472 kts 39°
2026-04-21 07:03 48.89994 3.98210 36223 ft 471 kts 39°
2026-04-21 07:04 48.94511 4.05341 36219 ft 471 kts 39°
2026-04-21 07:04 48.99046 4.12534 36226 ft 471 kts 39°
2026-04-21 07:05 49.03582 4.19734 36232 ft 471 kts 39°
2026-04-21 07:05 49.08111 4.26936 36230 ft 470 kts 39°
2026-04-21 07:06 49.12567 4.34271 36223 ft 476 kts 46°
2026-04-21 07:06 49.15818 4.43236 36226 ft 490 kts 62°
2026-04-21 07:07 49.18411 4.52855 36223 ft 490 kts 62°
2026-04-21 07:07 49.21021 4.62488 36224 ft 490 kts 62°
2026-04-21 07:08 49.23604 4.72058 36226 ft 490 kts 62°
2026-04-21 07:08 49.26182 4.81710 36226 ft 490 kts 62°
2026-04-21 07:09 49.28754 4.91367 36226 ft 490 kts 62°
2026-04-21 07:09 49.31323 5.01029 36224 ft 489 kts 62°
2026-04-21 07:10 49.33450 5.09060 36230 ft 489 kts 63°
2026-04-21 07:10 49.36431 5.20347 36229 ft 489 kts 63°
2026-04-21 07:11 49.38541 5.28391 36214 ft 488 kts 63°
2026-04-21 07:11 49.41064 5.38067 36224 ft 488 kts 63°
2026-04-21 07:12 49.43577 5.47738 36223 ft 487 kts 63°
2026-04-21 07:12 49.46085 5.57401 36223 ft 487 kts 64°
2026-04-21 07:13 49.48583 5.67075 36215 ft 486 kts 64°
2026-04-21 07:13 49.51760 5.76087 36219 ft 474 kts 47°
2026-04-21 07:14 49.56417 5.83028 36218 ft 461 kts 30°
2026-04-21 07:14 49.61772 5.88388 36226 ft 459 kts 28°
2026-04-21 07:15 49.67133 5.93774 36233 ft 460 kts 28°
2026-04-21 07:15 49.72487 5.99162 36238 ft 460 kts 28°
2026-04-21 07:16 49.77846 6.04562 36241 ft 460 kts 28°
2026-04-21 07:16 49.83249 6.09824 36246 ft 456 kts 22°
2026-04-21 07:17 49.89200 6.12702 36248 ft 445 kts
2026-04-21 07:17 49.95307 6.13010 36257 ft 442 kts 357°
2026-04-21 07:18 50.01463 6.13058 36267 ft 443 kts 357°
2026-04-21 07:18 50.07619 6.13100 36273 ft 443 kts 357°
2026-04-21 07:19 50.13785 6.13139 36274 ft 443 kts 357°
2026-04-21 07:19 50.19945 6.13176 36280 ft 443 kts 357°
2026-04-21 07:20 50.26113 6.13300 36282 ft 445 kts
2026-04-21 07:20 50.32119 6.15811 36284 ft 454 kts 22°
2026-04-21 07:21 50.37507 6.20992 36293 ft 459 kts 30°
2026-04-21 07:21 50.42839 6.26483 36298 ft 459 kts 30°
2026-04-21 07:22 50.47941 6.32391 36303 ft 464 kts 43°
2026-04-21 07:22 50.49982 6.36347 36304 ft 469 kts 54°
2026-04-21 07:22 50.51499 6.40897 36309 ft 473 kts 64°
2026-04-21 07:23 50.54084 6.50419 36324 ft 474 kts 64°
2026-04-21 07:23 50.56677 6.59936 36330 ft 473 kts 64°
2026-04-21 07:24 50.59270 6.69451 36338 ft 473 kts 62°
2026-04-21 07:24 50.60916 6.73878 36336 ft 466 kts 49°
2026-04-21 07:24 50.63012 6.77382 36340 ft 459 kts 36°
2026-04-21 07:25 50.65560 6.80317 35836 ft 453 kts 31°
2026-04-21 07:25 50.68167 6.83098 35088 ft 451 kts 31°
2026-04-21 07:25 50.70747 6.85801 34370 ft 440 kts 30°
2026-04-21 07:25 50.73398 6.88025 33551 ft 424 kts 17°
2026-04-21 07:26 50.76222 6.89042 32723 ft 411 kts
2026-04-21 07:26 50.79033 6.88911 31916 ft 400 kts 349°
2026-04-21 07:26 50.81684 6.87729 31138 ft 393 kts 336°
2026-04-21 07:26 50.84004 6.85649 30382 ft 387 kts 323°
2026-04-21 07:27 50.85946 6.82750 29492 ft 383 kts 310°
2026-04-21 07:27 50.87395 6.79181 28596 ft 380 kts 296°
2026-04-21 07:27 50.88240 6.75296 27753 ft 378 kts 283°
2026-04-21 07:27 50.88499 6.71172 26922 ft 376 kts 270°
2026-04-21 07:28 50.88159 6.67081 26116 ft 375 kts 256°
2026-04-21 07:28 50.87230 6.63247 25359 ft 373 kts 242°
2026-04-21 07:28 50.85772 6.59878 24603 ft 370 kts 229°
2026-04-21 07:28 50.83902 6.57115 23851 ft 367 kts 219°
2026-04-21 07:29 50.81869 6.54695 22977 ft 364 kts 215°
2026-04-21 07:29 50.79773 6.52476 22125 ft 362 kts 213°
2026-04-21 07:29 50.77652 6.50361 21297 ft 359 kts 212°
2026-04-21 07:29 50.75538 6.48285 20484 ft 357 kts 212°
2026-04-21 07:30 50.73440 6.46206 19704 ft 355 kts 212°
2026-04-21 07:30 50.71254 6.44446 18940 ft 352 kts 199°
2026-04-21 07:30 50.68892 6.43493 18122 ft 349 kts 186°
2026-04-21 07:30 50.66484 6.43330 17276 ft 346 kts 174°
2026-04-21 07:31 50.64127 6.43942 16451 ft 342 kts 162°
2026-04-21 07:31 50.61933 6.45304 15644 ft 337 kts 149°
2026-04-21 07:31 50.60000 6.47337 14865 ft 332 kts 137°
2026-04-21 07:31 50.58402 6.49912 14102 ft 327 kts 125°
2026-04-21 07:32 50.57193 6.52889 13250 ft 320 kts 114°
2026-04-21 07:32 50.56399 6.56120 12427 ft 314 kts 103°
2026-04-21 07:32 50.56022 6.59469 11617 ft 308 kts 92°
2026-04-21 07:32 50.56054 6.62793 10839 ft 302 kts 82°
2026-04-21 07:33 50.56462 6.65953 10078 ft 297 kts 73°
2026-04-21 07:33 50.57239 6.68972 9286 ft 291 kts 63°
2026-04-21 07:33 50.58348 6.71493 8758 ft 280 kts 47°
2026-04-21 07:33 50.59902 6.73241 8235 ft 274 kts 27°
2026-04-21 07:34 50.61725 6.73966 7720 ft 270 kts
2026-04-21 07:34 50.63566 6.74233 7211 ft 262 kts
2026-04-21 07:34 50.65357 6.74477 6711 ft 255 kts
2026-04-21 07:34 50.67114 6.74716 6185 ft 252 kts
2026-04-21 07:35 50.68857 6.74957 5664 ft 253 kts
2026-04-21 07:35 50.70623 6.75205 5147 ft 257 kts
2026-04-21 07:35 50.72416 6.75458 4628 ft 260 kts
2026-04-21 07:35 50.74190 6.75702 4357 ft 253 kts
2026-04-21 07:36 50.75918 6.75936 4095 ft 246 kts
2026-04-21 07:36 50.77601 6.76167 3834 ft 240 kts
2026-04-21 07:36 50.79246 6.76395 3575 ft 235 kts
2026-04-21 07:36 50.80861 6.76620 3310 ft 231 kts
2026-04-21 07:37 50.82449 6.76844 3074 ft 226 kts
2026-04-21 07:37 50.83978 6.77059 3004 ft 213 kts
2026-04-21 07:37 50.85399 6.77258 3007 ft 205 kts
2026-04-21 07:37 50.86820 6.77461 3014 ft 205 kts
2026-04-21 07:38 50.88260 6.77667 3010 ft 205 kts
2026-04-21 07:38 50.89660 6.77865 3013 ft 205 kts
2026-04-21 07:38 50.91079 6.78067 3009 ft 205 kts
2026-04-21 07:38 50.92499 6.78296 3025 ft 205 kts 10°
2026-04-21 07:39 50.93889 6.78732 3016 ft 202 kts 22°
2026-04-21 07:39 50.95138 6.79683 2995 ft 198 kts 38°
2026-04-21 07:39 50.96140 6.81142 3049 ft 196 kts 51°
2026-04-21 07:39 50.97028 6.82786 3041 ft 196 kts 53°
2026-04-21 07:40 50.97871 6.84485 3031 ft 196 kts 56°
2026-04-21 07:40 50.98652 6.86244 3034 ft 195 kts 59°
2026-04-21 07:40 50.99359 6.88079 3026 ft 194 kts 66°
2026-04-21 07:40 50.99765 6.90106 3017 ft 193 kts 82°
2026-04-21 07:41 50.99786 6.92228 3016 ft 193 kts 93°
2026-04-21 07:41 50.99666 6.94286 3148 ft 184 kts 97°
2026-04-21 07:41 50.99333 6.96244 3131 ft 184 kts 114°
2026-04-21 07:41 50.98561 6.97867 3140 ft 186 kts 134°
2026-04-21 07:42 50.97564 6.99156 2998 ft 187 kts 140°
2026-04-21 07:42 50.96521 7.00436 2807 ft 187 kts 137°
2026-04-21 07:42 50.95564 7.01734 2605 ft 178 kts 135°
2026-04-21 07:42 50.94686 7.02992 2382 ft 163 kts 135°
2026-04-21 07:43 50.93891 7.04188 2211 ft 152 kts 131°
2026-04-21 07:43 50.93167 7.05330 2023 ft 143 kts 134°
2026-04-21 07:43 50.92431 7.06397 1756 ft 144 kts 135°
2026-04-21 07:43 50.91699 7.07459 1503 ft 142 kts 135°
2026-04-21 07:44 50.90995 7.08512 1217 ft 137 kts 134°
2026-04-21 07:44 50.90290 7.09584 954 ft 143 kts 135°
2026-04-21 07:44 50.89566 7.10680 740 ft 147 kts 136°
2026-04-21 07:44 50.88803 7.11780 491 ft 149 kts 135°
2026-04-21 07:45 50.88045 7.12904 292 ft 147 kts 136°
2026-04-21 07:45 50.87354 7.13908 241 ft 115 kts 136°
2026-04-21 07:45 50.86998 7.14431 256 ft 49 kts 137°
2026-04-21 07:45 50.86883 7.14525 260 ft 7 kts 237°
2026-04-21 07:46 50.86880 7.14377 259 ft 20 kts 276°
2026-04-21 07:46 50.86919 7.14097 255 ft 32 kts 294°
2026-04-21 07:46 50.87089 7.13830 242 ft 36 kts 317°
2026-04-21 07:46 50.87263 7.13581 238 ft 32 kts 318°
2026-04-21 07:47 50.87416 7.13366 232 ft 29 kts 318°
2026-04-21 07:47 50.87568 7.13144 233 ft 30 kts 316°
2026-04-21 07:47 50.87727 7.12914 233 ft 32 kts 318°
2026-04-21 07:47 50.87771 7.12707 232 ft 17 kts 250°
2026-04-21 07:48 50.87744 7.12542 232 ft 13 kts 256°
2026-04-21 07:48 50.87764 7.12427 233 ft 6 kts 288°
2026-04-21 07:48 50.87765 7.12418 234 ft 0 kts 288°